sat.trackr.live / text

‹ back to catalog

UNKNOWN

NORAD 85418

UNKNOWN UNKNOWN UNKNOWN

§ Identity

Operator
Country
Launch date
Launch site
Launch vehicle
Mass (kg)
RCS (m²)

External: N2YO · Heavens-Above

§ Orbital elements

Epoch: 2026-06-09T12:32:31.873632Z

Period
92.56 min
Inclination
54.9942°
Eccentricity
0.0008111
Mean motion
15.55700982 rev/d
Perigee alt
394.6 km
Apogee alt
405.6 km
Semi-major
6,778.3 km
B*
6.8705e-4
RAAN
340.4332°
Arg perigee
255.4183°
Mean anomaly
104.5953°
Rev number
1

§ Raw data

UNKNOWN1 85418U          26160.52259113  .00047909  00000+0  68705-3 0  99962 85418  54.9942 340.4332 0008111 255.4183 104.5953 15.55700982    19

JSON: /api/v1/satellites/85418 · /tle

For live sub-satellite position, see the globe view (requires WebGL).

§ Visibility from observer

Set your observer location to see the next 7 days of passes ≥ 10°. The values pass through the URL so the page stays shareable.

No JS? Fill the form by hand. The geolocation button needs JavaScript.